Year,Month,Day,Hour,Minute,Value (Times are PST for windgust in km/hr)
2018,01,21,00,00,35.40
2018,01,21,00,01,43.50
2018,01,21,00,02,30.60
2018,01,21,00,03,19.30
2018,01,21,00,04,41.80
2018,01,21,00,05,43.50
2018,01,21,00,06,30.60
2018,01,21,00,07,43.50
2018,01,21,00,08,30.60
2018,01,21,00,09,27.40
2018,01,21,00,10,37.00
2018,01,21,00,11,29.00
2018,01,21,00,12,33.80
2018,01,21,00,13,22.50
2018,01,21,00,14,40.20
2018,01,21,00,15,33.80
2018,01,21,00,16,37.00
2018,01,21,00,17,41.80
2018,01,21,00,18,49.90
2018,01,21,00,19,37.00
2018,01,21,00,20,43.50
2018,01,21,00,21,33.80
2018,01,21,00,22,37.00
2018,01,21,00,23,45.10
2018,01,21,00,24,37.00
2018,01,21,00,25,37.00
2018,01,21,00,26,33.80
2018,01,21,00,27,25.70
2018,01,21,00,28,30.60
2018,01,21,00,29,40.20
2018,01,21,00,30,37.00
2018,01,21,00,31,20.90
2018,01,21,00,32,32.20
2018,01,21,00,33,37.00
2018,01,21,00,34,45.10
2018,01,21,00,35,45.10
2018,01,21,00,36,25.70
2018,01,21,00,37,24.20
2018,01,21,00,38,29.00
2018,01,21,00,39,46.70
2018,01,21,00,40,30.60
2018,01,21,00,41,27.40
2018,01,21,00,42,37.00
2018,01,21,00,43,30.60
2018,01,21,00,44,30.60
2018,01,21,00,45,33.80
2018,01,21,00,46,37.00
2018,01,21,00,47,33.80
2018,01,21,00,48,38.60
2018,01,21,00,49,32.20
2018,01,21,00,50,38.60
2018,01,21,00,51,37.00
2018,01,21,00,52,38.60
2018,01,21,00,53,33.80
2018,01,21,00,54,27.40
2018,01,21,00,55,38.60
2018,01,21,00,56,25.70
2018,01,21,00,57,32.20
2018,01,21,00,58,43.50
2018,01,21,00,59,33.80
2018,01,21,01,00,35.40
2018,01,21,01,01,33.80
2018,01,21,01,02,37.00
2018,01,21,01,03,33.80
2018,01,21,01,04,35.40
2018,01,21,01,05,38.60
2018,01,21,01,06,38.60
2018,01,21,01,07,40.20
2018,01,21,01,08,33.80
2018,01,21,01,09,33.80
2018,01,21,01,10,33.80
2018,01,21,01,11,33.80
2018,01,21,01,12,30.60
2018,01,21,01,13,29.00
2018,01,21,01,14,41.80
2018,01,21,01,15,33.80
2018,01,21,01,16,30.60
2018,01,21,01,17,41.80
2018,01,21,01,18,37.00
2018,01,21,01,19,38.60
2018,01,21,01,20,33.80
2018,01,21,01,21,32.20
2018,01,21,01,22,33.80
2018,01,21,01,23,22.50
2018,01,21,01,24,38.60
2018,01,21,01,25,32.20
2018,01,21,01,26,32.20
2018,01,21,01,27,33.80
2018,01,21,01,28,27.40
2018,01,21,01,29,32.20
2018,01,21,01,30,30.60
2018,01,21,01,31,38.60
2018,01,21,01,32,33.80
2018,01,21,01,33,27.40
2018,01,21,01,34,32.20
2018,01,21,01,35,37.00
2018,01,21,01,36,41.80
2018,01,21,01,37,29.00
2018,01,21,01,38,40.20
2018,01,21,01,39,33.80
2018,01,21,01,40,41.80
2018,01,21,01,41,37.00
2018,01,21,01,42,41.80
2018,01,21,01,43,45.10
2018,01,21,01,44,30.60
2018,01,21,01,45,41.80
2018,01,21,01,46,37.00
2018,01,21,01,47,45.10
2018,01,21,01,48,37.00
2018,01,21,01,49,32.20
2018,01,21,01,50,29.00
2018,01,21,01,51,49.90
2018,01,21,01,52,41.80
2018,01,21,01,53,41.80
2018,01,21,01,54,33.80
2018,01,21,01,55,41.80
2018,01,21,01,56,41.80
2018,01,21,01,57,41.80
2018,01,21,01,58,27.40
2018,01,21,01,59,32.20
2018,01,21,02,00,37.00
2018,01,21,02,01,43.50
2018,01,21,02,02,38.60
2018,01,21,02,03,41.80
2018,01,21,02,04,37.00
2018,01,21,02,05,33.80
2018,01,21,02,06,35.40
2018,01,21,02,07,45.10
2018,01,21,02,08,33.80
2018,01,21,02,09,35.40
2018,01,21,02,10,35.40
2018,01,21,02,11,30.60
2018,01,21,02,12,32.20
2018,01,21,02,13,35.40
2018,01,21,02,14,32.20
2018,01,21,02,15,41.80
2018,01,21,02,16,32.20
2018,01,21,02,17,35.40
2018,01,21,02,18,40.20
2018,01,21,02,19,48.30
2018,01,21,02,20,27.40
2018,01,21,02,21,35.40
2018,01,21,02,22,35.40
2018,01,21,02,23,37.00
2018,01,21,02,24,48.30
2018,01,21,02,25,33.80
2018,01,21,02,26,37.00
2018,01,21,02,27,29.00
2018,01,21,02,28,40.20
2018,01,21,02,29,35.40
2018,01,21,02,30,27.40
2018,01,21,02,31,29.00
2018,01,21,02,32,33.80
2018,01,21,02,33,29.00
2018,01,21,02,34,29.00
2018,01,21,02,35,38.60
2018,01,21,02,36,33.80
2018,01,21,02,37,30.60
2018,01,21,02,38,51.50
2018,01,21,02,39,48.30
2018,01,21,02,40,45.10
2018,01,21,02,41,46.70
2018,01,21,02,42,35.40
2018,01,21,02,43,43.50
2018,01,21,02,44,25.70
2018,01,21,02,45,30.60
2018,01,21,02,46,37.00
2018,01,21,02,47,33.80
2018,01,21,02,48,25.70
2018,01,21,02,49,43.50
2018,01,21,02,50,27.40
2018,01,21,02,51,38.60
2018,01,21,02,52,38.60
2018,01,21,02,53,38.60
2018,01,21,02,54,43.50
2018,01,21,02,55,33.80
2018,01,21,02,56,29.00
2018,01,21,02,57,30.60
2018,01,21,02,58,41.80
2018,01,21,02,59,48.30
2018,01,21,03,00,40.20
2018,01,21,03,01,40.20
2018,01,21,03,02,27.40
2018,01,21,03,03,38.60
2018,01,21,03,04,37.00
2018,01,21,03,05,30.60
2018,01,21,03,06,38.60
2018,01,21,03,07,38.60
2018,01,21,03,08,41.80
2018,01,21,03,09,30.60
2018,01,21,03,10,35.40
2018,01,21,03,11,27.40
2018,01,21,03,12,30.60
2018,01,21,03,13,46.70
2018,01,21,03,14,35.40
2018,01,21,03,15,48.30
2018,01,21,03,16,30.60
2018,01,21,03,17,38.60
2018,01,21,03,18,35.40
2018,01,21,03,19,35.40
2018,01,21,03,20,29.00
2018,01,21,03,21,29.00
2018,01,21,03,22,33.80
2018,01,21,03,23,35.40
2018,01,21,03,24,32.20
2018,01,21,03,25,35.40
2018,01,21,03,26,29.00
2018,01,21,03,27,38.60
2018,01,21,03,28,43.50
2018,01,21,03,29,38.60
2018,01,21,03,30,35.40
2018,01,21,03,31,41.80
2018,01,21,03,32,37.00
2018,01,21,03,33,38.60
2018,01,21,03,34,40.20
2018,01,21,03,35,46.70
2018,01,21,03,36,46.70
2018,01,21,03,37,30.60
2018,01,21,03,38,35.40
2018,01,21,03,39,27.40
2018,01,21,03,40,38.60
2018,01,21,03,41,56.30
2018,01,21,03,42,56.30
2018,01,21,03,43,41.80
2018,01,21,03,44,46.70
2018,01,21,03,45,35.40
2018,01,21,03,46,35.40
2018,01,21,03,47,43.50
2018,01,21,03,48,35.40
2018,01,21,03,49,40.20
2018,01,21,03,50,54.70
2018,01,21,03,51,57.90
2018,01,21,03,52,46.70
2018,01,21,03,53,41.80
2018,01,21,03,54,49.90
2018,01,21,03,55,49.90
2018,01,21,03,56,40.20
2018,01,21,03,57,38.60
2018,01,21,03,58,41.80
2018,01,21,03,59,40.20
2018,01,21,04,00,38.60
2018,01,21,04,01,37.00
2018,01,21,04,02,35.40
2018,01,21,04,03,30.60
2018,01,21,04,04,41.80
2018,01,21,04,05,43.50
2018,01,21,04,06,35.40
2018,01,21,04,07,38.60
2018,01,21,04,08,40.20
2018,01,21,04,09,33.80
2018,01,21,04,10,46.70
2018,01,21,04,11,41.80
2018,01,21,04,12,38.60
2018,01,21,04,13,41.80
2018,01,21,04,14,49.90
2018,01,21,04,15,41.80
2018,01,21,04,16,41.80
2018,01,21,04,17,43.50
2018,01,21,04,18,32.20
2018,01,21,04,19,43.50
2018,01,21,04,20,37.00
2018,01,21,04,21,46.70
2018,01,21,04,22,45.10
2018,01,21,04,23,38.60
2018,01,21,04,24,43.50
2018,01,21,04,25,33.80
2018,01,21,04,26,37.00
2018,01,21,04,27,35.40
2018,01,21,04,28,29.00
2018,01,21,04,29,37.00
2018,01,21,04,30,38.60
2018,01,21,04,31,43.50
2018,01,21,04,32,40.20
2018,01,21,04,33,40.20
2018,01,21,04,34,43.50
2018,01,21,04,35,45.10
2018,01,21,04,36,41.80
2018,01,21,04,37,56.30
2018,01,21,04,38,35.40
2018,01,21,04,39,41.80
2018,01,21,04,40,49.90
2018,01,21,04,41,49.90
2018,01,21,04,42,46.70
2018,01,21,04,43,41.80
2018,01,21,04,44,48.30
2018,01,21,04,45,38.60
2018,01,21,04,46,45.10
2018,01,21,04,47,45.10
2018,01,21,04,48,45.10
2018,01,21,04,49,46.70
2018,01,21,04,50,46.70
2018,01,21,04,51,49.90
2018,01,21,04,52,45.10
2018,01,21,04,53,53.10
2018,01,21,04,54,54.70
2018,01,21,04,55,48.30
2018,01,21,04,56,53.10
2018,01,21,04,57,48.30
2018,01,21,04,58,54.70
2018,01,21,04,59,35.40
2018,01,21,05,00,45.10
2018,01,21,05,01,57.90
2018,01,21,05,02,49.90
2018,01,21,05,03,45.10
2018,01,21,05,04,49.90
2018,01,21,05,05,37.00
2018,01,21,05,06,46.70
2018,01,21,05,07,38.60
2018,01,21,05,08,48.30
2018,01,21,05,09,48.30
2018,01,21,05,10,51.50
2018,01,21,05,11,45.10
2018,01,21,05,12,45.10
2018,01,21,05,13,48.30
2018,01,21,05,14,38.60
2018,01,21,05,15,49.90
2018,01,21,05,16,45.10
2018,01,21,05,17,45.10
2018,01,21,05,18,43.50
2018,01,21,05,19,43.50
2018,01,21,05,20,32.20
2018,01,21,05,21,43.50
2018,01,21,05,22,32.20
2018,01,21,05,23,35.40
2018,01,21,05,24,29.00
2018,01,21,05,25,35.40
2018,01,21,05,26,24.20
2018,01,21,05,27,32.20
2018,01,21,05,28,32.20
2018,01,21,05,29,24.20
2018,01,21,05,30,37.00
2018,01,21,05,31,32.20
2018,01,21,05,32,37.00
2018,01,21,05,33,35.40
2018,01,21,05,34,30.60
2018,01,21,05,35,40.20
2018,01,21,05,36,37.00
2018,01,21,05,37,38.60
2018,01,21,05,38,38.60
2018,01,21,05,39,37.00
2018,01,21,05,40,25.70
2018,01,21,05,41,35.40
2018,01,21,05,42,41.80
2018,01,21,05,43,30.60
2018,01,21,05,44,32.20
2018,01,21,05,45,38.60
2018,01,21,05,46,48.30
2018,01,21,05,47,32.20
2018,01,21,05,48,38.60
2018,01,21,05,49,33.80
2018,01,21,05,50,35.40
2018,01,21,05,51,35.40
2018,01,21,05,52,41.80
2018,01,21,05,53,51.50
2018,01,21,05,54,35.40
2018,01,21,05,55,53.10
2018,01,21,05,56,41.80
2018,01,21,05,57,35.40
2018,01,21,05,58,57.90
2018,01,21,05,59,37.00
2018,01,21,06,00,43.50
2018,01,21,06,01,38.60
2018,01,21,06,02,54.70
2018,01,21,06,03,43.50
2018,01,21,06,04,48.30
2018,01,21,06,05,32.20
2018,01,21,06,06,46.70
2018,01,21,06,07,51.50
2018,01,21,06,08,35.40
2018,01,21,06,09,40.20
2018,01,21,06,10,48.30
2018,01,21,06,11,56.30
2018,01,21,06,12,41.80
2018,01,21,06,13,45.10
2018,01,21,06,14,38.60
2018,01,21,06,15,43.50
2018,01,21,06,16,43.50
2018,01,21,06,17,46.70
2018,01,21,06,18,49.90
2018,01,21,06,19,48.30
2018,01,21,06,20,45.10
2018,01,21,06,21,41.80
2018,01,21,06,22,53.10
2018,01,21,06,23,49.90
2018,01,21,06,24,59.50
2018,01,21,06,25,67.60
2018,01,21,06,26,41.80
2018,01,21,06,27,48.30
2018,01,21,06,28,53.10
2018,01,21,06,29,51.50
2018,01,21,06,30,51.50
2018,01,21,06,31,56.30
2018,01,21,06,32,46.70
2018,01,21,06,33,59.50
2018,01,21,06,34,27.40
2018,01,21,06,35,43.50
2018,01,21,06,36,51.50
2018,01,21,06,37,49.90
2018,01,21,06,38,51.50
2018,01,21,06,39,41.80
2018,01,21,06,40,33.80
2018,01,21,06,41,38.60
2018,01,21,06,42,62.70
2018,01,21,06,43,46.70
2018,01,21,06,44,51.50
2018,01,21,06,45,53.10
2018,01,21,06,46,38.60
2018,01,21,06,47,41.80
2018,01,21,06,48,64.40
2018,01,21,06,49,69.20
2018,01,21,06,50,67.60
2018,01,21,06,51,46.70
2018,01,21,06,52,57.90
2018,01,21,06,53,41.80
2018,01,21,06,54,57.90
2018,01,21,06,55,51.50
2018,01,21,06,56,49.90
2018,01,21,06,57,40.20
2018,01,21,06,58,40.20
2018,01,21,06,59,48.30
2018,01,21,07,00,40.20
2018,01,21,07,01,49.90
2018,01,21,07,02,43.50
2018,01,21,07,03,46.70
2018,01,21,07,04,43.50
2018,01,21,07,05,38.60
2018,01,21,07,06,48.30
2018,01,21,07,07,41.80
2018,01,21,07,08,48.30
2018,01,21,07,09,43.50
2018,01,21,07,10,53.10
2018,01,21,07,11,62.70
2018,01,21,07,12,45.10
2018,01,21,07,13,54.70
2018,01,21,07,14,45.10
2018,01,21,07,15,43.50
2018,01,21,07,16,51.50
2018,01,21,07,17,53.10
2018,01,21,07,18,41.80
2018,01,21,07,19,45.10
2018,01,21,07,20,45.10
2018,01,21,07,21,41.80
2018,01,21,07,22,41.80
2018,01,21,07,23,48.30
2018,01,21,07,24,41.80
2018,01,21,07,25,49.90
2018,01,21,07,26,54.70
2018,01,21,07,27,45.10
2018,01,21,07,28,40.20
2018,01,21,07,29,41.80
2018,01,21,07,30,51.50
2018,01,21,07,31,40.20
2018,01,21,07,32,48.30
2018,01,21,07,33,43.50
2018,01,21,07,34,37.00
2018,01,21,07,35,41.80
2018,01,21,07,36,41.80
2018,01,21,07,37,37.00
2018,01,21,07,38,49.90
2018,01,21,07,39,45.10
2018,01,21,07,40,43.50
2018,01,21,07,41,53.10
2018,01,21,07,42,56.30
2018,01,21,07,43,53.10
2018,01,21,07,44,38.60
2018,01,21,07,45,38.60
2018,01,21,07,46,46.70
2018,01,21,07,47,32.20
2018,01,21,07,48,40.20
2018,01,21,07,49,48.30
2018,01,21,07,50,54.70
2018,01,21,07,51,51.50
2018,01,21,07,52,53.10
2018,01,21,07,53,49.90
2018,01,21,07,54,54.70
2018,01,21,07,55,57.90
2018,01,21,07,56,46.70
2018,01,21,07,57,62.70
2018,01,21,07,58,56.30
2018,01,21,07,59,53.10
2018,01,21,08,00,54.70
2018,01,21,08,01,49.90
2018,01,21,08,02,54.70
2018,01,21,08,03,51.50
2018,01,21,08,04,45.10
2018,01,21,08,05,51.50
2018,01,21,08,06,56.30
2018,01,21,08,07,48.30
2018,01,21,08,08,49.90
2018,01,21,08,09,46.70
2018,01,21,08,10,49.90
2018,01,21,08,11,56.30
2018,01,21,08,12,49.90
2018,01,21,08,13,45.10
2018,01,21,08,14,53.10
2018,01,21,08,15,59.50
2018,01,21,08,16,75.60
2018,01,21,08,17,57.90
2018,01,21,08,18,48.30
2018,01,21,08,19,51.50
2018,01,21,08,20,49.90
2018,01,21,08,21,46.70
2018,01,21,08,22,48.30
2018,01,21,08,23,37.00
2018,01,21,08,24,41.80
2018,01,21,08,25,45.10
2018,01,21,08,26,43.50
2018,01,21,08,27,64.40
2018,01,21,08,28,54.70
2018,01,21,08,29,62.70
2018,01,21,08,30,61.20
2018,01,21,08,31,57.90
2018,01,21,08,32,48.30
2018,01,21,08,33,48.30
2018,01,21,08,34,40.20
2018,01,21,08,35,41.80
2018,01,21,08,36,49.90
2018,01,21,08,37,30.60
2018,01,21,08,38,56.30
2018,01,21,08,39,49.90
2018,01,21,08,40,38.60
2018,01,21,08,41,40.20
2018,01,21,08,42,56.30
2018,01,21,08,43,43.50
2018,01,21,08,44,49.90
2018,01,21,08,45,51.50
2018,01,21,08,46,43.50
2018,01,21,08,47,46.70
2018,01,21,08,48,33.80
2018,01,21,08,49,46.70
2018,01,21,08,50,53.10
2018,01,21,08,51,49.90
2018,01,21,08,52,49.90
2018,01,21,08,53,48.30
2018,01,21,08,54,48.30
2018,01,21,08,55,46.70
2018,01,21,08,56,41.80
2018,01,21,08,57,51.50
2018,01,21,08,58,46.70
2018,01,21,08,59,46.70
2018,01,21,09,00,45.10
2018,01,21,09,01,37.00
2018,01,21,09,02,53.10
2018,01,21,09,03,49.90
2018,01,21,09,04,35.40
2018,01,21,09,05,41.80
2018,01,21,09,06,56.30
2018,01,21,09,07,37.00
2018,01,21,09,08,46.70
2018,01,21,09,09,41.80
2018,01,21,09,10,53.10
2018,01,21,09,11,53.10
2018,01,21,09,12,38.60
2018,01,21,09,13,43.50
2018,01,21,09,14,29.00
2018,01,21,09,15,41.80
2018,01,21,09,16,45.10
2018,01,21,09,17,49.90
2018,01,21,09,18,45.10
2018,01,21,09,19,38.60
2018,01,21,09,20,54.70
2018,01,21,09,21,45.10
2018,01,21,09,22,37.00
2018,01,21,09,23,38.60
2018,01,21,09,24,33.80
2018,01,21,09,25,45.10
2018,01,21,09,26,40.20
2018,01,21,09,27,35.40
2018,01,21,09,28,49.90
2018,01,21,09,29,41.80
2018,01,21,09,30,45.10
2018,01,21,09,31,56.30
2018,01,21,09,32,48.30
2018,01,21,09,33,38.60
2018,01,21,09,34,37.00
2018,01,21,09,35,45.10
2018,01,21,09,36,54.70
2018,01,21,09,37,40.20
2018,01,21,09,38,32.20
2018,01,21,09,39,41.80
2018,01,21,09,40,35.40
2018,01,21,09,41,33.80
2018,01,21,09,42,25.70
2018,01,21,09,43,32.20
2018,01,21,09,44,53.10
2018,01,21,09,45,41.80
2018,01,21,09,46,37.00
2018,01,21,09,47,33.80
2018,01,21,09,48,41.80
2018,01,21,09,49,43.50
2018,01,21,09,50,32.20
2018,01,21,09,51,30.60
2018,01,21,09,52,38.60
2018,01,21,09,53,38.60
2018,01,21,09,54,49.90
2018,01,21,09,55,33.80
2018,01,21,09,56,27.40
2018,01,21,09,57,27.40
2018,01,21,09,58,32.20
2018,01,21,09,59,27.40
2018,01,21,10,00,24.20
2018,01,21,10,01,25.70
2018,01,21,10,02,16.10
2018,01,21,10,03,16.10
2018,01,21,10,04,14.50
2018,01,21,10,05,33.80
2018,01,21,10,06,30.60
2018,01,21,10,07,24.20
2018,01,21,10,08,17.70
2018,01,21,10,09,11.30
2018,01,21,10,10,17.70
2018,01,21,10,11,22.50
2018,01,21,10,12,24.20
2018,01,21,10,13,16.10
2018,01,21,10,14,9.60
2018,01,21,10,15,20.90
2018,01,21,10,16,16.10
2018,01,21,10,17,8.10
2018,01,21,10,18,16.10
2018,01,21,10,19,19.30
2018,01,21,10,20,17.70
2018,01,21,10,21,17.70
2018,01,21,10,22,16.10
2018,01,21,10,23,11.30
2018,01,21,10,24,11.30
2018,01,21,10,25,8.10
2018,01,21,10,26,22.50
2018,01,21,10,27,25.70
2018,01,21,10,28,19.30
2018,01,21,10,29,16.10
2018,01,21,10,30,22.50
2018,01,21,10,31,24.20
2018,01,21,10,32,12.90
2018,01,21,10,33,25.70
2018,01,21,10,34,27.40
2018,01,21,10,35,22.50
2018,01,21,10,36,20.90
2018,01,21,10,37,24.20
2018,01,21,10,38,22.50
2018,01,21,10,39,30.60
2018,01,21,10,40,25.70
2018,01,21,10,41,27.40
2018,01,21,10,42,30.60
2018,01,21,10,43,19.30
2018,01,21,10,44,30.60
2018,01,21,10,45,27.40
2018,01,21,10,46,27.40
2018,01,21,10,47,25.70
2018,01,21,10,48,22.50
2018,01,21,10,49,22.50
2018,01,21,10,50,27.40
2018,01,21,10,51,22.50
2018,01,21,10,52,16.10
2018,01,21,10,53,19.30
2018,01,21,10,54,25.70
2018,01,21,10,55,25.70
2018,01,21,10,56,22.50
2018,01,21,10,57,17.70
2018,01,21,10,58,22.50
2018,01,21,10,59,27.40
2018,01,21,11,00,22.50
2018,01,21,11,01,16.10
2018,01,21,11,02,14.50
2018,01,21,11,03,17.70
2018,01,21,11,04,22.50
2018,01,21,11,05,14.50
2018,01,21,11,06,35.40
2018,01,21,11,07,22.50
2018,01,21,11,08,20.90
2018,01,21,11,09,29.00
2018,01,21,11,10,22.50
2018,01,21,11,11,25.70
2018,01,21,11,12,24.20
2018,01,21,11,13,24.20
2018,01,21,11,14,24.20
2018,01,21,11,15,25.70
2018,01,21,11,16,20.90
2018,01,21,11,17,19.30
2018,01,21,11,18,29.00
2018,01,21,11,19,20.90
2018,01,21,11,20,19.30
2018,01,21,11,21,24.20
2018,01,21,11,22,17.70
2018,01,21,11,23,12.90
2018,01,21,11,24,14.50
2018,01,21,11,25,24.20
2018,01,21,11,26,20.90
2018,01,21,11,27,19.30
2018,01,21,11,28,14.50
2018,01,21,11,29,22.50
2018,01,21,11,30,17.70
2018,01,21,11,31,16.10
2018,01,21,11,32,17.70
2018,01,21,11,33,19.30
2018,01,21,11,34,16.10
2018,01,21,11,35,16.10
2018,01,21,11,36,22.50
2018,01,21,11,37,20.90
2018,01,21,11,38,24.20
2018,01,21,11,39,19.30
2018,01,21,11,40,16.10
2018,01,21,11,41,11.30
2018,01,21,11,42,27.40
2018,01,21,11,43,25.70
2018,01,21,11,44,19.30
2018,01,21,11,45,19.30
2018,01,21,11,46,27.40
2018,01,21,11,47,24.20
2018,01,21,11,48,12.90
2018,01,21,11,49,19.30
2018,01,21,11,50,16.10
2018,01,21,11,51,19.30
2018,01,21,11,52,17.70
2018,01,21,11,53,22.50
2018,01,21,11,54,19.30
2018,01,21,11,55,20.90
2018,01,21,11,56,29.00
2018,01,21,11,57,20.90
2018,01,21,11,58,16.10
2018,01,21,11,59,17.70
2018,01,21,12,00,22.50
2018,01,21,12,01,29.00
2018,01,21,12,02,14.50
2018,01,21,12,03,19.30
2018,01,21,12,04,22.50
2018,01,21,12,05,25.70
2018,01,21,12,06,12.90
2018,01,21,12,07,17.70
2018,01,21,12,08,22.50
2018,01,21,12,09,19.30
2018,01,21,12,10,11.30
2018,01,21,12,11,20.90
2018,01,21,12,12,16.10
2018,01,21,12,13,25.70
2018,01,21,12,14,22.50
2018,01,21,12,15,17.70
2018,01,21,12,16,19.30
2018,01,21,12,17,22.50
2018,01,21,12,18,20.90
2018,01,21,12,19,19.30
2018,01,21,12,20,25.70
2018,01,21,12,21,25.70
2018,01,21,12,22,27.40
2018,01,21,12,23,22.50
2018,01,21,12,24,17.70
2018,01,21,12,25,11.30
2018,01,21,12,26,17.70
2018,01,21,12,27,17.70
2018,01,21,12,28,20.90
2018,01,21,12,29,14.50
2018,01,21,12,30,19.30
2018,01,21,12,31,19.30
2018,01,21,12,32,24.20
2018,01,21,12,33,16.10
2018,01,21,12,34,22.50
2018,01,21,12,35,14.50
2018,01,21,12,36,20.90
2018,01,21,12,37,22.50
2018,01,21,12,38,17.70
2018,01,21,12,39,20.90
2018,01,21,12,40,17.70
2018,01,21,12,41,17.70
2018,01,21,12,42,20.90
2018,01,21,12,43,22.50
2018,01,21,12,44,16.10
2018,01,21,12,45,22.50
2018,01,21,12,46,16.10
2018,01,21,12,47,16.10
2018,01,21,12,48,14.50
2018,01,21,12,49,17.70
2018,01,21,12,50,14.50
2018,01,21,12,51,19.30
2018,01,21,12,52,19.30
2018,01,21,12,53,16.10
2018,01,21,12,54,14.50
2018,01,21,12,55,11.30
2018,01,21,12,56,16.10
2018,01,21,12,57,22.50
2018,01,21,12,58,16.10
2018,01,21,12,59,17.70
2018,01,21,13,00,17.70
2018,01,21,13,01,12.90
2018,01,21,13,02,24.20
2018,01,21,13,03,22.50
2018,01,21,13,04,22.50
2018,01,21,13,05,20.90
2018,01,21,13,06,24.20
2018,01,21,13,07,14.50
2018,01,21,13,08,22.50
2018,01,21,13,09,24.20
2018,01,21,13,10,35.40
2018,01,21,13,11,29.00
2018,01,21,13,12,33.80
2018,01,21,13,13,30.60
2018,01,21,13,14,35.40
2018,01,21,13,15,27.40
2018,01,21,13,16,38.60
2018,01,21,13,17,30.60
2018,01,21,13,18,24.20
2018,01,21,13,19,29.00
2018,01,21,13,20,30.60
2018,01,21,13,21,27.40
2018,01,21,13,22,25.70
2018,01,21,13,23,20.90
2018,01,21,13,24,17.70
2018,01,21,13,25,25.70
2018,01,21,13,26,29.00
2018,01,21,13,27,24.20
2018,01,21,13,28,14.50
2018,01,21,13,29,22.50
2018,01,21,13,30,25.70
2018,01,21,13,31,27.40
2018,01,21,13,32,30.60
2018,01,21,13,33,30.60
2018,01,21,13,34,22.50
2018,01,21,13,35,25.70
2018,01,21,13,36,30.60
2018,01,21,13,37,22.50
2018,01,21,13,38,14.50
2018,01,21,13,39,19.30
2018,01,21,13,40,22.50
2018,01,21,13,41,24.20
2018,01,21,13,42,25.70
2018,01,21,13,43,22.50
2018,01,21,13,44,19.30
2018,01,21,13,45,19.30
2018,01,21,13,46,24.20
2018,01,21,13,47,25.70
2018,01,21,13,48,20.90
2018,01,21,13,49,27.40
2018,01,21,13,50,29.00
2018,01,21,13,51,27.40
2018,01,21,13,52,24.20
2018,01,21,13,53,19.30
2018,01,21,13,54,24.20
2018,01,21,13,55,24.20
2018,01,21,13,56,30.60
2018,01,21,13,57,29.00
2018,01,21,13,58,20.90
2018,01,21,13,59,25.70
2018,01,21,14,00,24.20
2018,01,21,14,01,25.70
2018,01,21,14,02,22.50
2018,01,21,14,03,24.20
2018,01,21,14,04,22.50
2018,01,21,14,05,22.50
2018,01,21,14,06,22.50
2018,01,21,14,07,22.50
2018,01,21,14,08,24.20
2018,01,21,14,09,22.50
2018,01,21,14,10,17.70
2018,01,21,14,11,25.70
2018,01,21,14,12,24.20
2018,01,21,14,13,19.30
2018,01,21,14,14,20.90
2018,01,21,14,15,20.90
2018,01,21,14,16,20.90
2018,01,21,14,17,19.30
2018,01,21,14,18,20.90
2018,01,21,14,19,12.90
2018,01,21,14,20,14.50
2018,01,21,14,21,16.10
2018,01,21,14,22,16.10
2018,01,21,14,23,20.90
2018,01,21,14,24,20.90
2018,01,21,14,25,19.30
2018,01,21,14,26,16.10
2018,01,21,14,27,16.10
2018,01,21,14,28,14.50
2018,01,21,14,29,17.70
2018,01,21,14,30,19.30
2018,01,21,14,31,17.70
2018,01,21,14,32,20.90
2018,01,21,14,33,16.10
2018,01,21,14,34,16.10
2018,01,21,14,35,17.70
2018,01,21,14,36,24.20
2018,01,21,14,37,20.90
2018,01,21,14,38,19.30
2018,01,21,14,39,14.50
2018,01,21,14,40,14.50
2018,01,21,14,41,14.50
2018,01,21,14,42,19.30
2018,01,21,14,43,20.90
2018,01,21,14,44,16.10
2018,01,21,14,45,16.10
2018,01,21,14,46,14.50
2018,01,21,14,47,17.70
2018,01,21,14,48,19.30
2018,01,21,14,49,19.30
2018,01,21,14,50,16.10
2018,01,21,14,51,17.70
2018,01,21,14,52,17.70
2018,01,21,14,53,19.30
2018,01,21,14,54,14.50
2018,01,21,14,55,20.90
2018,01,21,14,56,19.30
2018,01,21,14,57,16.10
2018,01,21,14,58,17.70
2018,01,21,14,59,17.70
2018,01,21,15,00,14.50
2018,01,21,15,01,14.50
2018,01,21,15,02,16.10
2018,01,21,15,03,12.90
2018,01,21,15,04,12.90
2018,01,21,15,05,11.30
2018,01,21,15,06,11.30
2018,01,21,15,07,14.50
2018,01,21,15,08,12.90
2018,01,21,15,09,14.50
2018,01,21,15,10,9.60
2018,01,21,15,11,24.20
2018,01,21,15,12,27.40
2018,01,21,15,13,29.00
2018,01,21,15,14,20.90
2018,01,21,15,15,29.00
2018,01,21,15,16,33.80
2018,01,21,15,17,25.70
2018,01,21,15,18,16.10
2018,01,21,15,19,24.20
2018,01,21,15,20,22.50
2018,01,21,15,21,22.50
2018,01,21,15,22,29.00
2018,01,21,15,23,27.40
2018,01,21,15,24,19.30
2018,01,21,15,25,22.50
2018,01,21,15,26,24.20
2018,01,21,15,27,24.20
2018,01,21,15,28,20.90
2018,01,21,15,29,20.90
2018,01,21,15,30,20.90
2018,01,21,15,31,22.50
2018,01,21,15,32,22.50
2018,01,21,15,33,17.70
2018,01,21,15,34,20.90
2018,01,21,15,35,17.70
2018,01,21,15,36,19.30
2018,01,21,15,37,12.90
2018,01,21,15,38,12.90
2018,01,21,15,39,19.30
2018,01,21,15,40,17.70
2018,01,21,15,41,12.90
2018,01,21,15,42,19.30
2018,01,21,15,43,12.90
2018,01,21,15,44,16.10
2018,01,21,15,45,27.40
2018,01,21,15,46,20.90
2018,01,21,15,47,19.30
2018,01,21,15,48,19.30
2018,01,21,15,49,20.90
2018,01,21,15,50,24.20
2018,01,21,15,51,24.20
2018,01,21,15,52,22.50
2018,01,21,15,53,19.30
2018,01,21,15,54,22.50
2018,01,21,15,55,22.50
2018,01,21,15,56,17.70
2018,01,21,15,57,19.30
2018,01,21,15,58,24.20
2018,01,21,15,59,27.40
2018,01,21,16,00,17.70
2018,01,21,16,01,19.30
2018,01,21,16,02,20.90
2018,01,21,16,03,17.70
2018,01,21,16,04,19.30
2018,01,21,16,05,19.30
2018,01,21,16,06,20.90
2018,01,21,16,07,24.20
2018,01,21,16,08,19.30
2018,01,21,16,09,14.50
2018,01,21,16,10,20.90
2018,01,21,16,11,17.70
2018,01,21,16,12,16.10
2018,01,21,16,13,20.90
2018,01,21,16,14,19.30
2018,01,21,16,15,16.10
2018,01,21,16,16,16.10
2018,01,21,16,17,14.50
2018,01,21,16,18,14.50
2018,01,21,16,19,19.30
2018,01,21,16,20,16.10
2018,01,21,16,21,9.60
2018,01,21,16,22,22.50
2018,01,21,16,23,19.30
2018,01,21,16,24,24.20
2018,01,21,16,25,19.30
2018,01,21,16,26,17.70
2018,01,21,16,27,16.10
2018,01,21,16,28,16.10
2018,01,21,16,29,14.50
2018,01,21,16,30,14.50
2018,01,21,16,31,11.30
2018,01,21,16,32,16.10
2018,01,21,16,33,19.30
2018,01,21,16,34,19.30
2018,01,21,16,35,17.70
2018,01,21,16,36,16.10
2018,01,21,16,37,19.30
2018,01,21,16,38,14.50
2018,01,21,16,39,17.70
2018,01,21,16,40,19.30
2018,01,21,16,41,14.50
2018,01,21,16,42,14.50
2018,01,21,16,43,20.90
2018,01,21,16,44,20.90
2018,01,21,16,45,17.70
2018,01,21,16,46,22.50
2018,01,21,16,47,25.70
2018,01,21,16,48,19.30
2018,01,21,16,49,20.90
2018,01,21,16,50,16.10
2018,01,21,16,51,20.90
2018,01,21,16,52,24.20
2018,01,21,16,53,25.70
2018,01,21,16,54,29.00
2018,01,21,16,55,24.20
2018,01,21,16,56,24.20
2018,01,21,16,57,24.20
2018,01,21,16,58,24.20
2018,01,21,16,59,25.70
2018,01,21,17,00,20.90
2018,01,21,17,01,20.90
2018,01,21,17,02,17.70
2018,01,21,17,03,22.50
2018,01,21,17,04,20.90
2018,01,21,17,05,20.90
2018,01,21,17,06,22.50
2018,01,21,17,07,16.10
2018,01,21,17,08,14.50
2018,01,21,17,09,20.90
2018,01,21,17,10,25.70
2018,01,21,17,11,17.70
2018,01,21,17,12,22.50
2018,01,21,17,13,19.30
2018,01,21,17,14,20.90
2018,01,21,17,15,20.90
2018,01,21,17,16,24.20
2018,01,21,17,17,22.50
2018,01,21,17,18,20.90
2018,01,21,17,19,17.70